Road Running Flyers for Upcoming Events Advertising Contact Us Race Calendar Home
MiFitLife

Complete results

Results for the Deloitte Pretoria (AGN) 42km race - 2015-03-01

2347 finishers

Position Initials Surname Sex Age Club Finish Time
1RSegodiM28Gauteng Striders02:24:33
2CParuraM50Nedbank02:24:55
3PKigenM33Nedbank02:25:34
4SDingileMNedbank02:26:51
5TMaineM40Nedbank02:27:42
6PHlabahlabaM33Temp02:30:13
7PMatlakalaM27Temp02:32:53
8SNcubeM43Maxed Elite02:34:29
9JMolabaM42Nedbank Agn02:35:02
10JManyediM31Sidebelo02:35:38
11NMasombukaM44Nedbank02:35:53
12GMmonwaM30Exxaro02:39:08
13GLeburuM24Hmk02:39:11
14JNtuliM43Magnolia02:39:45
15KBaloyiM40Olifantsfontein02:40:39
16UnknownM02:41:56
17SMqatiM33Tuks02:42:51
18PMedupeM40Nedbank Agn02:44:19
19MMaboteM36Rainbow02:45:16
20PPitcoMBnac02:45:54
21MMatsetelaM27Nedbank02:47:54
22RSetumuM46Nedbank Agn02:48:11
23BZwaneM41Nedbank02:49:22
24GMokoneM33Roodepoort02:50:12
25MHlongwaneM38Acrw02:50:30
26AChomiaM44Irene02:50:53
27DMoateM29Tuks02:51:55
28JKgomokaboyaM36Cool Running02:52:07
29IPeterkinM26Brooks02:52:11
30DMokganyaM33Nedbank02:53:12
31MNdokoM44Temp02:53:54
32SMasangoM43Hsrc02:53:56
33MMonanengM40Hsrc02:54:03
34TNgwanaM35Manoni02:54:03
35KMohlonoM35Rainbow02:55:01
36DRachereMNedbank02:55:17
37DMothibeM52Runavation02:56:25
38YMacleanF36Born 2 Run02:56:32
39NBesterM25Boksburg02:56:33
40ELegodiM51Moretele02:56:34
41MNgcoboM33Gallopers02:56:52
42MNenunguliM32Faranani02:56:56
43SMahlanguM43New Balance02:57:01
44BRouxM36Irene02:57:28
45ERautenbachF35Nedbank02:58:12
46RPoopediM30Acrw02:59:10
47SManamelaM41Eskom02:59:24
48BMakateMArcadia02:59:24
49UnknownM02:59:41
50JBothaM41Wingate02:59:59
51AMuzopambwaM31Legends03:00:34
52MSibiyaM32Acrw03:00:44
53NMagubaneM48Corr Serv03:00:54
54JRamaphakelaM56Tshwane03:01:05
55SLetsoaloM29A4a03:02:58
56GThabaM32Modern Athlete03:04:39
57AMashianeM32Magnolia03:05:06
58MLetlhakuM50Cool Running03:06:06
59NMasilelaM44Arcadia03:06:38
60MWilliamsM42Ace03:06:41
61CMasegeM34Sedibelo03:06:49
62JOosthuizenM41Nedbank03:07:16
63PSkosanaM48Carlton03:08:02
64TNenzheleleM34Faranani03:08:09
65JBrummerM37Runavation03:08:14
66GRoosM29Acrw03:08:14
67PSwanepoelM34Kempton03:08:15
68RGroblerM31Nedbank Agn03:08:15
69QWritesM32Roodepoort03:08:15
70DDawidMTemp03:08:16
71PMabenaM50Ford03:08:16
72NMgadiM34Anglo03:08:16
73CNkosiM47Olifantsfontein03:09:07
74FRamorokaM39Sabs Striders03:09:46
75PMahlanguM41Moretele03:09:47
76TMowayeM31Meadowlands03:09:48
77KTshukuduM29Pmmc03:09:55
78CV AntwerpenM39Tuks03:10:17
79GibaMNedbank03:10:27
80LTrainF41Krugersdorp03:10:41
81DDe VilliersM45Krugersdorp03:10:42
82JDe RaeymaekerM47Temp03:11:07
83MBaebaF34Transnet03:11:51
84RVd WathM35Magnolia03:12:18
85JNdlovuM49Ace03:12:33
86CNaidooM51Carnival City03:12:37
87MV DeventerM38Irene03:12:38
88MMohlalaM41Midrand Striders03:12:53
89PNgwenyaM35Airports03:13:09
90BWinderleyM32Sunninghill03:13:20
91PMotshoeneM40Rwfl03:13:38
92GFoucheM33Florida03:14:21
93KMalekaM40Midrand Striders03:14:27
94TShibambuM52Life03:14:28
95UnknownM03:14:36
96AAmosM40Hsrc03:14:40
97GBenadeM52Boksburg03:14:57
98CHlaleleM37Rainbow03:15:28
99RKrielM27Jannas03:16:04
100SHeydenrychM37Randburg Harriers03:16:28
101JGxivaM44Olifantsfontein03:16:39
102JChirozviM38Vitality03:17:11
103LRamavhaleM37Faranani03:17:27
104ARatshikakalaM36Transnet03:17:28
105CLaubscherM23Khosa03:17:44
106PNzilaneM32Tuks03:17:59
107SHenryM47Midack03:18:14
108BreytenbachM57Irene03:18:30
109NNdlovuM56Souls03:18:35
110LCurlewisM43Tuks03:18:40
111DLighelmM42Tuks03:18:40
112GMarriottM38Sunninghill03:19:00
113JMojalefaM26Temp03:19:25
114SMakuwaM38Corr Serv03:19:27
115SNgobeniM32Kempton03:19:28
116LPhiriM33Eskom03:19:38
117FMokoneM54Resbank03:19:40
118MNgomaneM36Ikhozi03:19:46
119DCharlesM65Nedbank03:20:05
120EEbersohnM26Transnet03:20:13
121PBreytenbachM38Irene03:20:29
122MBokabaMDbsa03:21:02
123MMammburuM32Kumba03:21:02
124MSmithM30Pirates03:21:09
125LManagaM25Arcadia03:21:31
126JMandlaM42Anglo03:21:36
127KMahlaoleM28Nedbank03:21:42
128MTshabalalaM31Stripers03:21:48
129XDladlaM29Anglo03:21:49
130ATshukuduM38Pmmc03:21:58
131BBadenhorstM33Hmk03:21:59
132DMaatsheM41Rwfl Soweto03:21:59
133DAustinM37Krugersdorp03:22:00
134LMolapoM47Nedbank03:22:11
135BCrossanM35Sunninghill03:22:11
136LV AswegenF46Runavation03:22:12
137JMatabaneM40Nedbank03:22:27
138LMmolaM44Irene03:22:30
139RBarnardM37Born 2 Run03:22:31
140MBrandon-kirbyM39Alberton03:22:31
141NMccannM30Jeppe03:22:57
142ANienaberM29Magnolia03:23:21
143JMaboyaM40Live03:23:29
144TAphaneM28Ppmk03:23:29
145IPhashaM27Temp03:23:42
146FMoatsheM41Nedbank03:23:44
147STsoloM32Drdlr03:23:59
148RRMTemp03:24:06
149NWrightM36Hqh03:24:07
150EMashegoM40Resbank03:24:18
151JMambabadaM41Carlton03:24:24
152DLongM41Midack03:24:30
153JMaepaM33Nedbank Cga03:24:36
154MMateneM37Eskom03:24:42
155NThompsonM30Sunninghill03:24:57
156NThomazM52Runavation03:25:19
157MMobiloM39Eskom03:25:25
158KMalatjieM43Nedbank Agn03:25:26
159EFluskM41Pmmc03:25:27
160SMasombulaM33Saps Mpu03:25:27
161JMahlanguM50Anglo03:25:35
162MTshirumbulaM34Eskom03:25:35
163BSandcanaM53Pretoria03:25:36
164AFlekserM30Vitality03:25:37
165JMahlanguM48Eskom03:25:51
166IBarnardF27Magnolia03:25:56
167DElsM34Rac03:26:08
168HNelM40Potties03:26:08
169TGomesM39Irene03:26:09
170WStrydomM43Boksburg03:26:28
171DMuziM30Arcadia03:26:48
172UnknownM03:26:50
173JBarnardM35Berts Bricks03:27:00
174JDe JagerM43Magnolia03:27:00
175BV ZylF38Florida03:27:10
176NCillieM38Alberton03:27:13
177DLouwM35Temp03:27:14
178NTshifhiwaM46Faranani03:27:15
179FSonyaneM50Apex03:27:24
180UnknownM03:27:33
181KChilesheF35Hsrc03:27:37
182TDa MattaM53Bnac03:27:38
183HMorediM36Erwat03:27:44
184MoumakoeM34Capital City03:27:51
185AShibambuMVutha03:27:52
186WMatsiengM52Nedbank Cga03:27:53
187PMofokengM53Nedbank03:27:53
188SMngeseM26Kempton03:27:54
189VNgobeniM35Ford03:27:54
190TLemakoM27Sibanye Gold03:28:07
191NRathihuleM31Tshiawelo03:28:20
192LKgomoM39Eskom03:28:23
193KSeatlholoM39Vitality03:28:24
194MBothaM42Roodepoort03:28:26
195ZBreytenbachF47Irene03:28:28
196WSmithM33Bnac03:28:32
197MThobakgalaM38Ffa03:28:33
198NMhlambisoM42Lesedi03:28:38
199WZunguM32Temp03:28:41
200AV BrakelM34Vitality03:28:44

Home | Next


Kromberg 2017
Tips
The Ultimate Human Race